Regional Weather Roundup
Issued by NWS

Home | Current Version | Previous Version | Graphics & Text | Print | Product List | Glossary On
Versions: 1 2 3 4 5 6 7 8 9 10 11 12 13 14 15 16 17 18 19 20 21 22 23 24 25 26 27 28 29 30 31 32 33 34 35 36 37 38 39 40 41 42 43 44 45 46 47 48 49 50
000
ASUS43 KOAX 051702
RWRNE

WEATHER ROUNDUP FOR NEBRASKA
NATIONAL WEATHER SERVICE OMAHA NE
1200 PM CDT SUN JUL 05 2015

NOTES: SATELLITE DATA IS BEING USED TO AUGMENT CLOUD COVER ABOVE
       12000 FEET.
       "FAIR" INDICATES FEW OR NO CLOUDS BELOW 12,000 FEET WITH NO
       SIGNIFICANT WEATHER AND/OR OBSTRUCTIONS TO VISIBILITY.

  * THESE STATIONS DO NOT REPORT WEATHER SUCH AS RAIN...SNOW OR FOG.

NEZ001>004-019>022-054>056-051800-
NEBRASKA PANHANDLE

CITY           SKY/WX    TMP DP  RH WIND       PRES   REMARKS
SCOTTSBLUFF    SUNNY     86  61  42 S6        29.87S
ALLIANCE       SUNNY     86  64  47 SW3       29.85S
CHADRON        MOSUNNY   90  61  37 W10       29.79S HX  90
KIMBALL          N/A    N/A N/A N/A MISG        N/A
SIDNEY         SUNNY     90  52  27 VRB5      29.91S
$$

NEZ057>060-069>072-079>082-051800-
SOUTHWEST NEBRASKA

CITY           SKY/WX    TMP DP  RH WIND       PRES   REMARKS
NORTH PLATTE   MOSUNNY   87  66  49 S9        29.83S
IMPERIAL       SUNNY     90  63  40 E7        29.84S HX  91
LEXINGTON      MOSUNNY   84  69  58 SE13      29.85S
MCCOOK         SUNNY     92  63  38 SE13      29.82F HX  93
$$

NEZ005>010-023>029-035>040-094-051800-
NORTH CENTRAL NEBRASKA

CITY           SKY/WX    TMP DP  RH WIND       PRES   REMARKS
VALENTINE      SUNNY     88  67  49 S14       29.78F HX  91
AINSWORTH      SUNNY     86  68  55 S15       29.81F
BROKEN BOW     SUNNY     84  69  60 SE15G26   29.84F
O`NEILL        SUNNY     82  70  68 S18G26    29.83F
ORD            SUNNY     83  68  60 S14       29.83F
$$

NEZ041-046>049-061>064-073>077-083>087-051800-
SOUTH CENTRAL NEBRASKA

CITY           SKY/WX    TMP DP  RH WIND       PRES   REMARKS
GRAND ISLAND   MOSUNNY   83  70  64 SE14      29.88F
AURORA         PTSUNNY   80  73  78 SE15      29.88F
HASTINGS       SUNNY     84  71  65 SE12      29.87F
KEARNEY *      SUNNY     84  70  61 SE15      29.86S
$$

NEZ011>018-030>034-042>045-051800-
NORTHEAST NEBRASKA

CITY           SKY/WX    TMP DP  RH WIND       PRES   REMARKS
NORFOLK        PTSUNNY   83  70  64 S18G26    29.85F
ALBION         PTSUNNY   77  67  73 S16       29.88R
BLAIR          CLOUDY    73  66  80 SE13      29.90F
COLUMBUS *     PTSUNNY   79  66  65 SE14G20   29.88S
FREMONT        CLOUDY    74  69  86 SE14      29.88F HAZE
TEKAMAH        CLOUDY    75  69  81 SE17      29.87F
$$

NEZ050>053-065>068-078-088>093-051800-
SOUTHEAST NEBRASKA

CITY           SKY/WX    TMP DP  RH WIND       PRES   REMARKS
LINCOLN        CLOUDY    76  68  76 E13       29.91F HAZE
OMAHA EPPLEY   CLOUDY    75  67  76 S3        29.92F
BEATRICE       PTSUNNY   84  73  69 SE13      29.90S HX  90
FALLS CITY     CLOUDY    84  72  67 SE15      29.93F
NEBRASKA CITY  CLOUDY    79  67  66 SE12      29.94S
PLATTSMOUTH    CLOUDY    77  68  73 S10       29.94S
$$

NEZ044-045-051>053-067-051800-
OMAHA AREA

CITY           SKY/WX    TMP DP  RH WIND       PRES   REMARKS
OMAHA EPPLEY   CLOUDY    75  67  76 S3        29.92F
BLAIR          CLOUDY    73  66  80 SE13      29.90F
FREMONT        CLOUDY    74  69  86 SE14      29.88F HAZE
MILLARD        CLOUDY    74  68  80 SE10      29.91F
OFFUTT AFB     CLOUDY    76  69  79 SE5       29.92F
PLATTSMOUTH    CLOUDY    77  68  73 S10       29.94S
WAHOO          FAIR      74  70  86 SE14      29.90F
$$



USA.gov is the U.S. government's official web portal to all federal, state and local government web resources and services.